Location: Casteau
(50.5142°N, 4.0161°E)
Time: 14:32:55
(UTC+00:00)

USA 234 - Pass Details

Date: 18 September 2020
Orbit: 1102 x 1106 km, 123.0° (Epoch: 16 October)

Event Time Altitude Azimuth Distance (km) Brightness Sun altitude
Rises 18:34:06 0° 61° (ENE) 3,927 5.7 -7.7°
Reaches altitude 10° 18:37:17 10° 77° (ENE) 2,966 5.0 -8.2°
Maximum altitude 18:42:09 22° 125° (SE) 2,208 4.3 -9.0°
Drops below altitude 10° 18:47:00 10° 174° (S) 2,956 5.3 -9.7°
Sets 18:50:08 0° 189° (S) 3,910 6.1 -10.2°
